Location: Ash Shall?l al Awwal
(24.0167°N, 32.8667°E)
Time: 19:46:39
(UTC+00:00)

Delta 7925 Rocket - Pass Details

Date: 02 March 2021
Orbit: 645 x 1648 km, 26.3° (Epoch: 10 April)

Event Time Altitude Azimuth Distance (km) Brightness Sun altitude
Rises 16:31:11 0° 267° (W) 3,101 9.1 -9.8°
Reaches altitude 10° 16:33:42 10° 269° (W) 2,107 7.4 -10.4°
Maximum altitude 16:38:28 71° 354° (N) 677 3.2 -11.4°
Enters shadow 16:41:59 17° 76° (ENE) 1,621 4.6 -12.2°
